Regional Weather Roundup
Issued by NWS Bismarck, ND

Home | Current Version | Previous Version | Text Only | Print | Product List | Glossary On
Versions: 1 2 3 4 5 6 7 8 9 10 11 12 13 14 15 16 17 18 19 20 21 22 23 24 25 26 27 28 29 30 31 32 33 34 35 36 37 38 39 40 41 42 43 44 45 46 47 48 49 50
000
ASUS43 KBIS 290802
RWRBIS

NWR BROADCAST TEXT
NATIONAL WEATHER SERVICE BISMARCK ND
300 AM CDT SAT APR 29 2017

NOTE: "FAIR" INDICATES FEW OR NO CLOUDS BELOW 12,000 FEET WITH NO
SIGNIFICANT WEATHER AND/OR OBSTRUCTIONS TO VISIBILITY.


CITY           SKY/WX    TMP DP  RH WIND       PRES   REMARKS
WILLISTON      FAIR      40  26  57 CALM      30.17R
MINOT          FAIR      38  24  57 S6        30.18S
MINOT AFB      FAIR      36  25  63 S6        30.17S
BISMARCK       FAIR      31  23  72 CALM      30.23R
DICKINSON      FAIR      26  17  68 S7        30.18S WCI  18
GARRISON         N/A     35  26  69 CALM      30.20R
HETTINGER ARPT FAIR      29  23  78 CALM      30.21S
JAMESTOWN      FAIR      31  25  78 CALM      30.22R
HAZEN          FAIR      23  18  80 CALM      30.23S
LINTON           N/A     28  23  80 E5        30.24S
MANDAN         FAIR      34  16  47 W3        30.22S HAZE
STANLEY        PTSUNNY   36  23  60 CALM      30.20R
TIOGA          FAIR      37  21  52 S9        30.18S
WATFORD CITY   FAIR      36  21  55 SE3       30.18S
$$

CITY           SKY/WX    TMP DP  RH WIND       PRES   REMARKS
GRAND FORKS    FAIR      30  25  81 NW3       30.22R
GRAND FORKS AF FAIR      30  25  81 CALM      30.23R
DEVILS LAKE    FAIR      33  28  81 CALM      30.23R
FARGO          FAIR      28  23  81 N3        30.22R
CAVALIER       FAIR      28  21  74 CALM      30.24S
GRAFTON        FAIR      32  23  69 NW6       30.25S
GWINNER        SUNNY     36  25  64 MISG      30.22R
LANGDON        FAIR      25  21  86 CALM      30.23R
ROLLA          FAIR      30  19  64 SW5       30.21S
$$

CITY           SKY/WX    TMP DP  RH WIND       PRES   REMARKS
ABERDEEN       FAIR      27  22  81 NW3       30.22S
MOBRIDGE       FAIR      33  17  51 N7        30.18F
BUFFALO          N/A     39  27  62 W5        30.13S
RAPID CITY     FAIR      29  20  69 NE6       30.19R
GLASGOW        FAIR      41  34  76 CALM      30.18R
SIDNEY         FAIR      33  23  66 S5        30.18R
WOLF POINT     FAIR      38  32  79 CALM      30.19R
GLENDIVE       FAIR      40  25  55 CALM      30.19R
MILES CITY     FAIR      37  28  70 CALM      30.18S
BAKER          FAIR      36  27  69 CALM      30.19S
$$

CITY           SKY/WX    TMP DP  RH WIND       PRES   REMARKS
BILLINGS       FAIR      36  34  92 W3        30.19S
GREAT FALLS    CLOUDY    34  31  88 S9        30.17F
$$




USA.gov is the U.S. government's official web portal to all federal, state and local government web resources and services.